Location: Blazny
(46.0612°N, 84.4033°W)
Time: 09:02:15
(UTC-04:00)

ARIANE 6 FM1 Upper Stage - Pass Details

Date: 20 September 2024
Orbit: 564 x 594 km, 62.0° (Epoch: 03 October)

Event Time Altitude Azimuth Distance (km) Brightness Sun altitude
Rises 20:38:30 0° 188° (S) 2,767 6.2 -11.2°
Reaches altitude 10° 20:40:58 10° 176° (S) 1,879 5.2 -11.7°
Maximum altitude 20:44:30 26° 119° (ESE) 1,158 3.7 -12.3°
Enters shadow 20:47:13 14° 70° (ENE) 1,634 4.5 -12.7°
